Regional Weather Roundup
Issued by NWS Albany, NY

Home | Current Version | Previous Version | Text Only | Print | Product List | Glossary On
Versions: 1 2 3 4 5 6 7 8 9 10 11 12 13 14 15 16 17 18 19 20 21 22 23 24 25 26 27
000
ASUS41 KALY 210710
RWRALY

NEW YORK STATE HOURLY WEATHER ROUNDUP
NATIONAL WEATHER SERVICE ALBANY NY
300 AM EDT FRI JUL 21 2017

NOTE: "FAIR" INDICATES FEW OR NO CLOUDS BELOW 12,000 FEET WITH NO
SIGNIFICANT WEATHER AND/OR NO OBSTRUCTIONS TO VISIBILITY.

NYZ032-033-038>043-046>054-057>066-NYZ062>081-082-084-210800-
EAST


CITY           SKY/WX    TMP DP  RH WIND       PRES   REMARKS
ALBANY         PTCLDY    69  61  75 CALM      29.88S
GLENS FALLS    FOG       58  58 100 CALM      29.86S VSB 1/2
POUGHKEEPSIE   CLEAR     69  67  93 CALM      29.87F
NEWBURGH       MOCLDY    70  70 100 W8        29.91F
MONTGOMERY     CLEAR     68  67  96 CALM      29.90F FOG
WHITE PLAINS   PTCLDY    75  66  73 NW9       29.88F
ISLIP          CLOUDY    78  67  68 NW3       29.87S
NEW YORK CITY  MOCLDY    79  70  74 NW7       29.87S
CENTRAL PARK   CLOUDY    77  68  73 CALM      29.91F
$$

NYZ005>009-017-018-044>046-055-056-210800-
CENTRAL


CITY           SKY/WX    TMP DP  RH WIND       PRES   REMARKS
FULTON         FOG       63  61  94 CALM      29.90S VSB 3/4
SYRACUSE       CLOUDY    70  69  97 W6        29.89S
ROME           CLOUDY    63  61  93 CALM      29.90F
ELMIRA         FOG       67  67 100 CALM      29.94S VSB 1/4
BINGHAMTON     FOG       65  65 100 SW5       29.95F VSB 1/2
$$

NYZ026>034-041>043-087-210800-
NORTH


CITY           SKY/WX    TMP DP  RH WIND       PRES   REMARKS
WATERTOWN      CLEAR     63  61  93 S5        29.87F
FORT DRUM      NOT AVBL
OGDENSBURG     FAIR      62  60  93 S5        29.86R
MASSENA        CLEAR     64  58  80 SW8       29.85S
SARANAC LAKE   CLEAR     46  46 100 CALM      29.89F
PLATTSBURGH    CLEAR     60  54  80 S3        29.82S
$$

NYZ001>004-010>016-019>021-085-210800-
WEST


CITY           SKY/WX    TMP DP  RH WIND       PRES   REMARKS
NIAGARA FALLS  MOCLDY    72  68  87 SW3       29.92S FOG
BUFFALO        PTCLDY    70  69  97 SW6       29.93S FOG
DUNKIRK        CLEAR     71  66  84 S6        29.94S
JAMESTOWN      CLEAR     66  63  88 W8        30.00S
WELLSVILLE     PTCLDY    69  65  86 W7        30.01F
ROCHESTER      PTCLDY    68  67  96 W7        29.91S FOG
PENN YAN       MOCLDY    70  67  90 SW8       29.93F
$$

             KEY
       WCI = WIND CHILL INDEX
       VSB = VISIBILITY
       HX  = HEAT INDEX
$$




USA.gov is the U.S. government's official web portal to all federal, state and local government web resources and services.